Other Public Products
Issued by NWS Grand Forks, ND

Home | Current Version | Previous Version | Graphics & Text | Print | Product List | Glossary On
Versions: 1 2 3 4 5 6 7 8 9 10 11 12 13 14 15 16 17 18 19 20 21 22 23 24 25 26 27 28 29 30 31 32 33 34 35 36 37 38 39 40 41 42 43 44 45 46 47 48 49 50
000
FPUS83 KFGF 121331
OPUFGF
PRAIRIE TO PINES WEATHER ROUNDUP
NATIONAL WEATHER SERVICE EASTERN NORTH DAKOTA/GRAND FORKS ND
700 AM CST FRI FEB 12 2016

 **SATELLITE DATA USED TO AUGMENT SKY COVER AT AUTOMATED STATIONS**
 *****  WEATHER ACROSS EASTERN NORTH DAKOTA  *****

CITY           SKY/WX    TMP DP  RH WIND       PRES   REMARKS
GRAND FORKS    PTCLDY    -2 -10  69 N17       30.54R WCI -23
GRAND FORKS AF CLOUDY    -2  -9  71 N17       30.55R WCI -24
GRAND CITY NWS NOT AVBL
BUXTON           N/A     -2  -7  80 N16         N/A  WCI -23
DEVILS LAKE    PTCLDY   -12 -16  82 NW10      30.52R WCI -31
FARGO          CLEAR      1  -8  66 N16       30.51R WCI -19
WAHPETON ARPT  MOSUNNY    1  -6  71 N14       30.49R WCI -17
$$

 *****  WEATHER ACROSS CENTRAL AND WESTERN NORTH DAKOTA  *****

CITY           SKY/WX    TMP DP  RH WIND       PRES   REMARKS
JAMESTOWN      CLOUDY     0  -6  76 N17       30.48R WCI -21
BISMARCK       PTCLDY     7  -1  70 N9        30.50R WCI  -7
MINOT          PTCLDY    -1 -10  65 NW10      30.53R WCI -17
MINOT AFB      CLOUDY    -8 -13  79 NW3       30.54R
GARRISON         N/A      0  -7  72 N7        30.50R WCI -13
WILLISTON      PTCLDY     4  -2  76 N7        30.51R WCI  -8
DICKINSON      CLOUDY    11   7  84 NE13      30.40R WCI  -4
HETTINGER      CLOUDY    18  14  84 N10       30.40R WCI   6
$$

 *****  OTHER OBSERVATIONS NORTHEAST NORTH DAKOTA  *****

CITY           SKY/WX    TMP DP  RH WIND       PRES   REMARKS
WALHALLA       FAIR      -6 -13  71 N15       30.59R WCI -27
LANGDON        FAIR     -13 -18  77 N12       30.49R WCI -33
CAVALIER       FAIR      -6 -13  71 N20G25    30.58R WCI -29
GRAFTON        FAIR      -6 -13  71 N17       30.59R WCI -28
CANDO          FAIR     -13 -17  84 N9        30.56R WCI -31
FORT TOTTEN    NOT AVBL
ROLLA          FAIR     -15 -20  76 N9        30.51R WCI -33
RUGBY          FAIR     -11 -15  84 W5        30.54R WCI -23
 ***** THE ABOVE OBSERVATIONS ARE NON NWS ARE NOT QUALITY
        CONTROLLED AND MAY MIS-REPORT RAIN FOR SNOW...
$$

 *****  OTHER OBSERVATIONS SOUTHEAST NORTH DAKOTA *****

CITY           SKY/WX    TMP DP  RH WIND       PRES   REMARKS
COOPERSTOWN    NOT AVBL
VALLEY CITY    PTSUNNY   -4  -9  77 N9        30.52R WCI -20
OAKES          FAIR       1  -2  85 N13       30.49R WCI -16
GWINNER        FAIR       1  -4  78 N9        30.49R WCI -14
SHEYENNE NWR     N/A     -1  -9  68 N7        29.95S WCI -14
BUFFALO          N/A     -6 -12  73 N9          N/A  WCI -23
WYNDMERE         N/A      0  -6  78 N13         N/A  WCI -18
 ***** THE ABOVE OBSERVATIONS ARE NON NWS ARE NOT QUALITY
       CONTROLLED AND MAY MIS-REPORT RAIN FOR SNOW...
$$

  *****  WEATHER ACROSS NORTHERN MINNESOTA  *****

CITY           SKY/WX    TMP DP  RH WIND       PRES   REMARKS
FLAG ISLAND    CLEAR    -15 -20  76 NW18      30.43R WCI -41
WARROAD        CLOUDY   -13 -18  77 NW10      30.45R WCI -32
ROSEAU         CLOUDY   -11 -18  70 NW10      30.48R WCI -30
HALLOCK        CLOUDY    -8 -15  71 N18       30.55R WCI -31
THF RVR FALLS  CLEAR     -6 -17  59 N17       30.48R WCI -28
HALSTAD          N/A     -2  -6  83 N17         N/A  WCI -23
FOSSTON        MOCLDY    -9 -15  77 NW14      30.43R WCI -31
BAUDETTE       CLEAR    -12 -19  71 NW16      30.37R WCI -35
WASKISH        CLEAR     -9 -15  77 NW8       30.39R WCI -26
CROOKSTON      CLEAR     -4  -9  77 N21       30.53R WCI -28
$$
  *****  WEATHER ACROSS CENTRAL AND WEST MINNESOTA  *****

CITY           SKY/WX    TMP DP  RH WIND       PRES   REMARKS
BEMIDJI        CLOUDY    -8 -13  78 NW14      30.37R WCI -28
PARK RAPIDS    CLEAR     -4 -11  72 NW12      30.33R WCI -22
WADENA         CLEAR     -4  -9  77 NW13G18   30.36R WCI -23
DETROIT LAKES  CLOUDY    -4  -8  84 N15G23    30.41R WCI -25
MOORHEAD       PTCLDY    -2  -8  78 N16       30.51R WCI -23
FERGUS FALLS   CLEAR      0  -8  71 N13G20    30.48R WCI -18
ELBOW LAKE     FAIR       1  -5  78 NW14G20   30.43R WCI -18
MORRIS MN      PTCLDY     3  -2  78 NW17      30.41R WCI -17
STAPLES        CLEAR     -2  -8  78 NW16G22   30.34R WCI -23
WHEATON        PTCLDY     3  -2  78 NW13G20   30.48R WCI -14
$$
  *****  WEATHER ELSEWHERE ACROSS MINNESOTA  *****

CITY           SKY/WX    TMP DP  RH WIND       PRES   REMARKS
DULUTH         PTCLDY    -1 -10  65 NW20G32   30.16R WCI -23
INTRNTL FALLS  CLEAR    -11 -17  75 NW12      30.31R WCI -31
ELY            PTCLDY    -8 -15  71 NW13G18   30.19R WCI -28
CLOQUET        PTCLDY     0  -8  71 NW14G20   30.21R WCI -19
BRAINERD       PTCLDY     0  -7  72 NW14      30.31R WCI -19
HIBBING        CLOUDY    -7 -12  79 NW21      30.23R HAZE    WCI -32
ALEXANDRIA     CLEAR      1  -8  66 NW14      30.35R WCI -17
SAINT CLOUD    PTCLDY     3  -3  76 NW13      30.32R WCI -14
MINNEAPOLIS    PTCLDY     7   1  76 NW13      30.31R WCI  -9
$$

  *****  WEATHER ACROSS SOUTH DAKOTA  *****

CITY           SKY/WX    TMP DP  RH WIND       PRES   REMARKS
SIOUX FALLS    CLOUDY    14   7  73 N12       30.38R WCI   0
BROOKINGS      FLURRIES  10   5  79 N12       30.38R WCI  -4
WATERTOWN      CLOUDY    10   3  73 N20       30.38R WCI  -9
HURON          CLOUDY    14  10  84 N12       30.45R WCI   0
SISSETON         N/A      3  -3  76 N14       30.44R WCI -15
ABERDEEN       CLOUDY    12   4  70 N17       30.48R WCI  -5
MITCHELL       CLOUDY    17  12  80 N15       30.43R WCI   2
PIERRE         CLOUDY    21  16  81 N9        30.42R WCI  11
MOBRIDGE       CLOUDY    19  13  77 MISG      30.41R
RAPID CITY     CLOUDY    29  26  89 NE8       30.33R WCI  21
$$

  *****  SOME WEATHER IN NEARBY STATES *****

CITY           SKY/WX    TMP DP  RH WIND       PRES   REMARKS
GLASGOW MT     CLOUDY    18  14  84 E15       30.43R WCI   4
GREAT FALLS MT LGT RAIN  34  29  82 E9        30.22S
CHEYENNE WY    CLOUDY    34  25  69 S7        30.28R
SCOTTSBLUFF NE MOCLDY    31  27  85 NW5       30.29R
OMAHA NE       CLOUDY    21  17  84 N12       30.38R FOG     WCI   9
DES MOINES IA  CLOUDY    20  12  71 NW14      30.31R WCI   7
DAVENPORT IA   CLOUDY    20  16  84 NW17      30.21S WCI   5
CHICAGO IL     CLOUDY    19   8  62 W12       30.13F WCI   7
EAU CLAIRE WI  CLEAR      9  -1  64 NW15      30.21R WCI  -8
LA CROSSE WI   CLOUDY    14   8  77 NW14      30.22R WCI  -1
$$

  *****  SOME NATIONAL WEATHER *****

CITY           SKY/WX    TMP DP  RH WIND       PRES   REMARKS
LA GUARDIA NY  MOSUNNY   18   0  45 W10       30.27R WCI   6
RALEIGH NC     MOCLDY    26   6  42 E8        30.26F WCI  18
ATLANTA GA     CLOUDY    41  25  53 NE8       30.13S
NEW ORLEANS LA PTCLDY    57  53  86 SW7       30.24R
OKLAHOMA CITY  PTCLDY    35  31  85 N7        30.27R
ALBUQUERQUE NM CLEAR     34  18  52 W3        30.38R
SALT LAKE CITY FOG       29  27  92 N6        30.43  VSB 1   WCI  23
LOS ANGELES CA PTCLDY    59  38  45 SE3       30.08S
BOISE ID       CLEAR     32  29  88 CALM      30.33S
SEATTLE WA     CLOUDY    50  49  96 SE10      30.09S
$$

*** WEATHER ACROSS MANITOBA...SASKATCHEWAN AND ONTARIO ***
                ***ONTARIO***

CITY           SKY/WX    TMP DP  RH WIND       PRES   REMARKS
GERALDTON      PTCLDY   -22 -29  69 NW9G18    30.07R WCI -42
THUNDER BAY    FLURRIES  -8 -18  59 NW10G18   30.19R WCI -26
SIOUX LOOKOUT  CRYSTALS -20 -27  69 NW12      30.27R WCI -42
TORONTO        CLOUDY    14   5  67 W18       30.00F WCI  -3
BIG TROUT LK   FLURRIES -27 -36  62 NW14G20   30.21R WCI -54
PICKLE LAKE    CRYSTALS -26 -33  68 NW8G20    30.16R WCI -45
DRYDEN         CLEAR    -17 -24  70 N8        30.28R WCI -34
KENORA         CLEAR    -18 -24  76 NW7       30.36R WCI -35
$$
                *** MANITOBA***

CITY           SKY/WX    TMP DP  RH WIND       PRES   REMARKS
BRANDON        CLEAR    -24 -29  76 NW9       30.58R WCI -45
DAUPHIN        CLEAR    -18 -24  76 NW7       30.65R WCI -35
ISLAND LAKE    CLEAR    -26 -31  75 NW8       30.43  WCI -45
PILOT MOUND      N/A    -13 -18  77 N10         N/A  WCI -32
THE PAS        PTCLDY   -22 -27  76 NW10      30.68R WCI -44
THOMPSON       CLEAR    -26 -33  68 NW9       30.54S WCI -47
WINNIPEG       CLEAR    -15 -22  70 N15       30.59R WCI -38
LYNN LAKE      CLEAR    -31 -36  75 NW9       30.61R WCI -53
CHURCHILL      CRYSTALS -22 -27  76 NW23G32   30.42R VSB 3/4 WCI -53
GILLAM         CLEAR    -24 -31  69 NW12G20   30.41R WCI -47
$$
                ***SASKATCHEWAN***

CITY           SKY/WX    TMP DP  RH WIND       PRES   REMARKS
ESTEVAN        CLEAR     -4  -9  77 W6        30.54  WCI -16
KINDERSLEY     PTCLDY     7   0  72 E20       30.43S WCI -13
LLOYDMINSTER   CLOUDY     0  -4  85 SE14G22   30.44F WCI -19
PRINCE ALBERT  CLEAR    -26 -31  75 E6        30.64S WCI -42
REGINA         CLOUDY     0  -4  85 NE3       30.55R
YORKTON        CLEAR    -20 -24  83 NW9       30.57R WCC1F1C2F2C3F3C4F4C5F5C6F6C7F7C8F8C9F9CaFaCbFbCcFcCdFdCe!


USA.gov is the U.S. government's official web portal to all federal, state and local government web resources and services.